H1 CPF 1 NER 2021 11 23 9 8271 glonass121 H2 1000702 9121 36401 2021 11 23 0 0 0 2021 11 26 23 45 0 900 1 1 0 0 0 H9 10 0 59541 0.00000 0 -5182247.784 18617017.391 16692364.656 10 0 59541 900.00000 0 -6178100.518 20258451.925 14275195.801 10 0 59541 1800.00000 0 -6877821.319 21705990.456 11581809.930 10 0 59541 2700.00000 0 -7300313.277 22900337.951 8664431.912 10 0 59541 3600.00000 0 -7475985.947 23789244.136 5579552.176 10 0 59541 4500.00000 0 -7445218.774 24329687.108 2386842.463 10 0 59541 5400.00000 0 -7256414.917 24489690.808 -851985.250 10 0 59541 6300.00000 0 -6963727.579 24249701.962 -4074355.778 10 0 59541 7200.00000 0 -6624554.112 23603470.093 -7218022.195 10 0 59541 8100.00000 0 -6296902.420 22558394.477 -10222250.217 10 0 59541 9000.00000 0 -6036739.268 21135323.492 -13028974.195 10 0 59541 9900.00000 0 -5895430.741 19367814.065 -15583903.774 10 0 59541 10800.00000 0 -5917381.397 17300880.732 -17837561.308 10 0 59541 11700.00000 0 -6137970.670 14989284.489 -19746231.178 10 0 59541 12600.00000 0 -6581873.105 12495430.419 -21272803.511 10 0 59541 13500.00000 0 -7261833.611 9886959.021 -22387496.554 10 0 59541 14400.00000 0 -8177950.535 7234128.844 -23068443.780 10 0 59541 15300.00000 0 -9317498.814 4607096.998 -23302133.916 10 0 59541 16200.00000 0 -10655303.342 2073208.677 -23083694.414 10 0 59541 17100.00000 0 -12154650.137 -305592.942 -22417011.435 10 0 59541 18000.00000 0 -13768700.340 -2475129.219 -21314682.117 10 0 59541 18900.00000 0 -15442350.916 -4391022.613 -19797797.904 10 0 59541 19800.00000 0 -17114466.655 -6020321.707 -17895560.822 10 0 59541 20700.00000 0 -18720391.612 -7342645.659 -15644737.939 10 0 59541 21600.00000 0 -20194635.513 -8350798.862 -13088962.647 10 0 59541 22500.00000 0 -21473622.100 -9050828.726 -10277894.836 10 0 59541 23400.00000 0 -22498382.663 -9461523.017 -7266255.490 10 0 59541 24300.00000 0 -23217079.498 -9613367.436 -4112754.372 10 0 59541 25200.00000 0 -23587250.406 -9547007.518 -878932.290 10 0 59541 26100.00000 0 -23577676.860 -9311280.764 2372058.047 10 0 59541 27000.00000 0 -23169794.390 -8960903.953 5576706.889 10 0 59541 27900.00000 0 -22358583.442 -8553915.914 8672411.205 10 0 59541 28800.00000 0 -21152901.590 -8148986.861 11598720.114 10 0 59541 29700.00000 0 -19575242.390 -7802711.259 14298535.253 10 0 59541 30600.00000 0 -17660931.164 -7567001.709 16719240.607 10 0 59541 31500.00000 0 -15456792.515 -7486696.575 18813738.090 10 0 59541 32400.00000 0 -13019347.110 -7597484.290 20541367.807 10 0 59541 33300.00000 0 -10412615.154 -7924233.002 21868694.886 10 0 59541 34200.00000 0 -7705620.505 -8479796.142 22770147.992 10 0 59541 35100.00000 0 -4969701.322 -9264343.587 23228498.338 10 0 59541 36000.00000 0 -2275740.487 -10265245.291 23235171.460 10 0 59541 36900.00000 0 308568.401 -11457510.512 22790387.724 10 0 59541 37800.00000 0 2721306.270 -12804762.343 21903130.946 10 0 59541 38700.00000 0 4908658.997 -14260704.880 20590947.826 10 0 59541 39600.00000 0 6826898.283 -15771020.030 18879584.016 10 0 59541 40500.00000 0 8443933.560 -17275613.487 16802465.457 10 0 59541 41400.00000 0 9740373.689 -18711115.490 14400036.227 10 0 59541 42300.00000 0 10710057.658 -20013531.783 11718966.519 10 0 59541 43200.00000 0 11360035.593 -21120934.649 8811246.397 10 0 59541 44100.00000 0 11710003.853 -21976082.601 5733182.701 10 0 59541 45000.00000 0 11791220.244 -22528860.577 2544318.085 10 0 59541 45900.00000 0 11644946.498 -22738440.153 -693707.793 10 0 59541 46800.00000 0 11320484.201 -22575070.885 -3918334.045 10 0 59541 47700.00000 0 10872886.743 -22021429.013 -7067269.835 10 0 59541 48600.00000 0 10360442.839 -21073467.869 -10079679.636 10 0 59541 49500.00000 0 9842036.367 -19740734.506 -12897341.105 10 0 59541 50400.00000 0 9374492.165 -18046138.783 -15465754.648 10 0 59541 51300.00000 0 9010018.027 -16025183.263 -17735184.663 10 0 59541 52200.00000 0 8793849.307 -13724684.096 -19661613.591 10 0 59541 53100.00000 0 8762194.407 -11201033.834 -21207591.158 10 0 59541 54000.00000 0 8940567.419 -8518075.722 -22342963.012 10 0 59541 54900.00000 0 9342578.598 -5744674.994 -23045464.735 10 0 59541 55800.00000 0 9969234.919 -2952085.499 -23301169.291 10 0 59541 56700.00000 0 10808782.161 -211218.687 -23104778.349 10 0 59541 57600.00000 0 11837097.898 2410073.404 -22459750.382 10 0 59541 58500.00000 0 13018621.823 4849589.242 -21378261.186 10 0 59541 59400.00000 0 14307787.403 7053135.627 -19880995.449 10 0 59541 60300.00000 0 15650897.443 8976553.718 -17996771.060 10 0 59541 61200.00000 0 16988366.853 10587327.777 -15762001.269 10 0 59541 62100.00000 0 18257239.615 11865708.125 -13220003.131 10 0 59541 63000.00000 0 19393874.363 12805299.874 -10420164.176 10 0 59541 63900.00000 0 20336684.737 13413091.334 -7416982.667 10 0 59541 64800.00000 0 21028817.409 13708920.061 -4268999.989 10 0 59541 65700.00000 0 21420652.467 13724398.725 -1037646.510 10 0 59541 66600.00000 0 21472017.859 13501346.559 2213975.138 10 0 59541 67500.00000 0 21154021.516 13089793.962 5422343.766 10 0 59541 68400.00000 0 20450421.164 12545646.644 8524783.545 10 0 59541 69300.00000 0 19358471.897 11928110.706 11460710.895 10 0 59541 70200.00000 0 17889214.396 11296990.564 14172837.602 10 0 59541 71100.00000 0 16067191.090 10709976.932 16608304.600 10 0 59541 72000.00000 0 13929602.583 10220042.205 18719722.616 10 0 59541 72900.00000 0 11524940.787 9873055.375 20466098.467 10 0 59541 73800.00000 0 8911157.601 9705718.466 21813628.740 10 0 59541 74700.00000 0 6153447.606 9743911.924 22736345.826 10 0 59541 75600.00000 0 3321739.068 10001518.249 23216604.898 10 0 59541 76500.00000 0 487999.193 10479772.110 23245404.003 10 0 59541 77400.00000 0 -2276533.384 11167162.501 22822532.975 10 0 59541 78300.00000 0 -4904073.820 12039888.901 21956550.450 10 0 59541 79200.00000 0 -7332861.697 13062850.126 20664591.501 10 0 59541 80100.00000 0 -9509471.884 14191122.376 18972011.558 10 0 59541 81000.00000 0 -11390772.130 15371862.939 16911875.130 10 0 59541 81900.00000 0 -12945449.016 16546558.734 14524300.418 10 0 59541 82800.00000 0 -14155042.010 17653525.005 11855673.348 10 0 59541 83700.00000 0 -15014445.924 18630549.728 8957746.552 10 0 59541 84600.00000 0 -15531863.977 19417573.643 5886640.575 10 0 59541 85500.00000 0 -15728215.995 19959294.769 2701766.263 10 0 59542 0.00000 0 -15636028.644 20207589.672 -535311.450 10 0 59542 900.00000 0 -15297855.308 20123651.504 -3762049.224 10 0 59542 1800.00000 0 -14764292.562 19679756.225 -6916114.626 10 0 59542 2700.00000 0 -14091676.058 18860584.340 -9936573.398 10 0 59542 3600.00000 0 -13339551.803 17664042.707 -12765048.895 10 0 59542 4500.00000 0 -12568027.740 16101551.865 -15346834.498 10 0 59542 5400.00000 0 -11835115.428 14197785.757 -17631938.666 10 0 59542 6300.00000 0 -11194172.031 11989872.879 -19576043.665 10 0 59542 7200.00000 0 -10691548.886 9526089.806 -21141360.332 10 0 59542 8100.00000 0 -10364544.743 6864098.652 -22297362.957 10 0 59542 9000.00000 0 -10239749.550 4068798.704 -23021390.178 10 0 59542 9900.00000 0 -10331849.047 1209878.569 -23299099.846 10 0 59542 10800.00000 0 -10642941.750 -1640832.262 -23124768.160 10 0 59542 11700.00000 0 -11162399.074 -4412104.730 -22501425.856 10 0 59542 12600.00000 0 -11867276.983 -7036031.987 -21440826.958 10 0 59542 13500.00000 0 -12723264.591 -9450619.423 -19963248.553 10 0 59542 14400.00000 0 -13686132.458 -11602135.136 -18097123.161 10 0 59542 15300.00000 0 -14703621.906 -13447122.217 -15878508.602 10 0 59542 16200.00000 0 -15717697.373 -14953987.643 -13350403.676 10 0 59542 17100.00000 0 -16667067.618 -16104099.816 -10561921.386 10 0 59542 18000.00000 0 -17489869.172 -16892347.164 -7567334.920 10 0 59542 18900.00000 0 -18126397.539 -17327133.067 -4425014.791 10 0 59542 19800.00000 0 -18521768.766 -17429806.561 -1196278.336 10 0 59542 20700.00000 0 -18628396.203 -17233552.714 2055824.557 10 0 59542 21600.00000 0 -18408174.875 -16781790.270 5267763.995 10 0 59542 22500.00000 0 -17834278.195 -16126145.802 8376794.141 10 0 59542 23400.00000 0 -16892488.589 -15324092.236 11322201.512 10 0 59542 24300.00000 0 -15582003.921 -14436354.302 14046510.806 10 0 59542 25200.00000 0 -13915684.566 -13524193.478 16496622.554 10 0 59542 26100.00000 0 -11919730.442 -12646689.889 18624858.733 10 0 59542 27000.00000 0 -9632802.064 -11858138.256 20389895.013 10 0 59542 27900.00000 0 -7104623.561 -11205669.319 21757561.211 10 0 59542 28800.00000 0 -4394127.729 -10727197.757 22701494.787 10 0 59542 29700.00000 0 -1567222.207 -10449782.792 23203635.772 10 0 59542 30600.00000 0 1305728.629 -10388469.379 23254555.151 10 0 59542 31500.00000 0 4152600.097 -10545656.922 22853612.225 10 0 59542 32400.00000 0 6902269.510 -10911019.709 22008940.039 10 0 59542 33300.00000 0 9487329.961 -11461979.931 20737261.259 10 0 59542 34200.00000 0 11846643.983 -12164710.963 19063539.980 10 0 59542 35100.00000 0 13927633.034 -12975626.650 17020477.835 10 0 59542 36000.00000 0 15688210.213 -13843292.480 14647865.408 10 0 59542 36900.00000 0 17098278.781 -14710677.402 11991802.303 10 0 59542 37800.00000 0 18140737.292 -15517651.459 9103801.358 10 0 59542 38700.00000 0 18811952.552 -16203624.700 6039794.197 10 0 59542 39600.00000 0 19121683.404 -16710217.402 2859056.992 10 0 59542 40500.00000 0 19092460.783 -16983850.726 -376923.651 10 0 59542 41400.00000 0 18758451.592 -16978150.401 -3605623.858 10 0 59542 42300.00000 0 18163854.744 -16656063.865 -6764673.247 10 0 59542 43200.00000 0 17360896.712 -15991603.068 -9793041.776 10 0 59542 44100.00000 0 16407509.993 -14971140.382 -12632201.279 10 0 59542 45000.00000 0 15364790.736 -13594203.252 -15227240.674 10 0 59542 45900.00000 0 14294340.701 -11873733.493 -17527914.787 10 0 59542 46800.00000 0 13255603.422 -9835798.775 -19489607.730 10 0 59542 47700.00000 0 12303304.855 -7518766.133 -21074193.154 10 0 59542 48600.00000 0 11485104.677 -4971969.091 -22250775.342 10 0 59542 49500.00000 0 10839556.106 -2253920.698 -22996296.951 10 0 59542 50400.00000 0 10394459.846 569856.407 -23296001.274 10 0 59542 51300.00000 0 10165681.898 3429295.860 -23143739.181 10 0 59542 52200.00000 0 10156486.249 6252449.683 -22542113.400 10 0 59542 53100.00000 0 10357412.389 8968238.004 -21502455.526 10 0 59542 54000.00000 0 10746705.092 11509173.476 -20044634.030 10 0 59542 54900.00000 0 11291280.771 13813947.490 -18196694.700 10 0 59542 55800.00000 0 11948191.941 15829770.050 -15994338.256 10 0 59542 56700.00000 0 12666529.785 17514364.667 -13480243.253 10 0 59542 57600.00000 0 13389685.596 18837533.370 -10703245.876 10 0 59542 58500.00000 0 14057875.719 19782224.497 -7717391.676 10 0 59542 59400.00000 0 14610822.489 20345056.878 -4580877.486 10 0 59542 60300.00000 0 14990476.081 20536277.095 -1354904.636 10 0 59542 61200.00000 0 15143659.716 20379150.960 1897532.819 10 0 59542 62100.00000 0 15024523.391 19908815.060 5112899.372 10 0 59542 63000.00000 0 14596699.311 19170637.805 8228382.175 10 0 59542 63900.00000 0 13835065.009 18218160.983 11183140.687 10 0 59542 64800.00000 0 12727037.295 17110711.142 13919515.127 10 0 59542 65700.00000 0 11273340.687 15910784.395 16384167.972 10 0 59542 66600.00000 0 9488217.095 14681317.841 18529134.524 10 0 59542 67500.00000 0 7399067.861 13482965.148 20312761.080 10 0 59542 68400.00000 0 5045543.773 12371493.030 21700512.161 10 0 59542 69300.00000 0 2478122.465 11395409.308 22665631.422 10 0 59542 70200.00000 0 -243765.924 10593922.503 23189644.518 10 0 59542 71100.00000 0 -3053985.134 9995317.862 23262695.734 10 0 59542 72000.00000 0 -5882216.328 9615816.413 22883713.740 10 0 59542 72900.00000 0 -8656653.126 9458962.585 22060405.421 10 0 59542 73800.00000 0 -11306756.058 9515563.349 20809079.963 10 0 59542 74700.00000 0 -13765952.594 9764178.631 19154308.558 10 0 59542 75600.00000 0 -15974172.056 10172139.685 17128427.963 10 0 59542 76500.00000 0 -17880112.194 10697050.445 14770898.754 10 0 59542 77400.00000 0 -19443145.687 11288707.149 12127531.555 10 0 59542 78300.00000 0 -20634790.133 11891354.618 9249596.580 10 0 59542 79200.00000 0 -21439683.273 12446184.142 6192833.633 10 0 59542 80100.00000 0 -21856025.416 12893968.362 3016381.328 10 0 59542 81000.00000 0 -21895473.013 13177723.294 -218354.580 10 0 59542 81900.00000 0 -21582489.571 13245286.764 -3448872.984 10 0 59542 82800.00000 0 -20953182.098 13051706.227 -6612767.870 10 0 59542 83700.00000 0 -20053672.161 12561336.761 -9648915.906 10 0 59542 84600.00000 0 -18938069.370 11749561.934 -12498639.755 10 0 59542 85500.00000 0 -17666131.217 10604065.592 -15106826.055 10 0 59543 0.00000 0 -16300705.971 9125600.908 -17422977.758 10 0 59543 900.00000 0 -14905063.315 7328222.393 -19402182.939 10 0 59543 1800.00000 0 -13540224.642 5238971.252 -21005979.217 10 0 59543 2700.00000 0 -12262400.839 2897021.876 -22203101.903 10 0 59543 3600.00000 0 -11120645.501 352323.790 -22970098.356 10 0 59543 4500.00000 0 -10154820.577 -2336208.513 -23291797.623 10 0 59543 5400.00000 0 -9393959.850 -5102885.804 -23161625.182 10 0 59543 6300.00000 0 -8855099.514 -7877726.543 -22581755.333 10 0 59543 7200.00000 0 -8542626.300 -10589130.717 -21563096.448 10 0 59543 8100.00000 0 -8448172.267 -13166635.769 -20125107.240 10 0 59543 9000.00000 0 -8551062.707 -15543640.885 -18295445.306 10 0 59543 9900.00000 0 -8819300.383 -17659986.087 -16109452.513 10 0 59543 10800.00000 0 -9211046.309 -19464277.818 -13609485.201 10 0 59543 11700.00000 0 -9676535.810 -20915862.368 -10844100.605 10 0 59543 12600.00000 0 -10160349.337 -21986362.674 -7867114.401 10 0 59543 13500.00000 0 -10603941.565 -22660712.099 -4736547.453 10 0 59543 14400.00000 0 -10948320.390 -22937640.075 -1513482.767 10 0 59543 15300.00000 0 -11136760.272 -22829587.917 1739143.762 10 0 59543 16200.00000 0 -11117432.269 -22362057.894 4957793.366 10 0 59543 17100.00000 0 -10845836.353 -21572423.365 8079588.566 10 0 59543 18000.00000 0 -10286930.048 -20508251.380 11043564.165 10 0 59543 18900.00000 0 -9416860.624 -19225210.497 13791878.306 10 0 59543 19800.00000 0 -8224225.539 -17784654.516 16270957.759 10 0 59543 20700.00000 0 -6710806.576 -16250986.744 18432553.368 10 0 59543 21600.00000 0 -4891746.163 -14688918.382 20234684.087 10 0 59543 22500.00000 0 -2795158.634 -13160738.595 21642450.889 10 0 59543 23400.00000 0 -461193.604 -11723712.493 22628705.052 10 0 59543 24300.00000 0 2059408.116 -10427716.870 23174558.917 10 0 59543 25200.00000 0 4707204.326 -9313212.461 23269730.733 10 0 59543 26100.00000 0 7416306.763 -8409636.399 22912718.825 10 0 59543 27000.00000 0 10116907.058 -7734280.058 22110803.823 10 0 59543 27900.00000 0 12737967.808 -7291696.487 20879880.974 10 0 59543 28800.00000 0 15209966.997 -7073659.227 19244127.769 10 0 59543 29700.00000 0 17467582.640 -7059671.093 17235514.957 10 0 59543 30600.00000 0 19452207.636 -7217998.762 14893171.636 10 0 59543 31500.00000 0 21114192.283 -7507187.415 12262617.642 10 0 59543 32400.00000 0 22414723.697 -7877990.170 9394878.418 10 0 59543 33300.00000 0 23327266.482 -8275630.291 6345499.466 10 0 59543 34200.00000 0 23838507.199 -8642300.910 3173479.060 10 0 59543 35100.00000 0 23948765.551 -8919797.550 -59860.920 10 0 59543 36000.00000 0 23671856.967 -9052173.660 -3292045.304 10 0 59543 36900.00000 0 23034413.558 -8988308.611 -6460635.661 10 0 59543 37800.00000 0 22074692.392 -8684281.429 -9504418.515 10 0 59543 38700.00000 0 20840920.745 -8105451.404 -12364570.342 10 0 59543 39600.00000 0 19389246.745 -7228158.795 -14985778.244 10 0 59543 40500.00000 0 17781379.751 -6040974.162 -17317296.159 10 0 59543 41400.00000 0 16082017.445 -4545443.086 -19313917.450 10 0 59543 42300.00000 0 14356165.317 -2756293.554 -20936846.001 10 0 59543 43200.00000 0 12666458.817 -701094.920 -22154449.658 10 0 59543 44100.00000 0 11070598.504 1580620.316 -22942881.634 10 0 59543 45000.00000 0 9619004.385 4038738.612 -23286557.498 10 0 59543 45900.00000 0 8352786.960 6614397.389 -23178477.712 10 0 59543 46800.00000 0 7302120.007 9242194.046 -22620388.099 10 0 59543 47700.00000 0 6485084.009 11852682.988 -21622773.342 10 0 59543 48600.00000 0 5907029.965 14375058.999 -20204681.522 10 0 59543 49500.00000 0 5560491.941 16739916.726 -18393380.762 10 0 59543 50400.00000 0 5425653.822 18881971.609 -16223852.419 10 0 59543 51300.00000 0 5471352.252 20742628.309 -13738128.588 10 0 59543 52200.00000 0 5656574.720 22272288.055 -10984485.182 10 0 59543 53100.00000 0 5932390.188 23432296.407 -8016505.321 10 0 59543 54000.00000 0 6244230.461 24196447.660 -4892030.968 10 0 59543 54900.00000 0 6534424.725 24551980.618 -1672023.663 10 0 59543 55800.00000 0 6744878.086 24500022.058 1580642.102 10 0 59543 56700.00000 0 6819778.104 24055458.119 4802427.559 10 0 59543 57600.00000 0 6708211.681 23246238.710 7930393.773 10 0 59543 58500.00000 0 6366578.379 22112144.800 10903453.900 10 0 59543 59400.00000 0 5760695.095 20703071.989 13663586.779 10 0 59543 60300.00000 0 4867500.586 19076904.725 16156985.968 10 0 59543 61200.00000 0 3676286.074 17297073.215 18335120.054 10 0 59543 62100.00000 0 2189398.993 15429898.386 20155682.526 10 0 59543 63000.00000 0 422390.018 13541838.800 21583412.364 10 0 59543 63900.00000 0 -1596402.311 11696756.936 22590769.674 10 0 59543 64800.00000 0 -3826810.934 9953320.416 23158454.298 10 0 59543 65700.00000 0 -6218302.178 8362647.054 23275758.862 10 0 59543 66600.00000 0 -8711877.655 6966291.396 22940751.291 10 0 59543 67500.00000 0 -11242335.728 5794655.039 22160285.405 10 0 59543 68400.00000 0 -13740797.494 4865884.598 20949841.445 10 0 59543 69300.00000 0 -16137391.883 4185300.287 19333201.616 10 0 59543 70200.00000 0 -18363988.569 3745375.669 17341968.568 10 0 59543 71100.00000 0 -20356866.072 3526266.120 15014937.420 10 0 59543 72000.00000 0 -22059205.601 3496861.004 12397334.361 10 0 59543 72900.00000 0 -23423308.904 3616313.071 9539936.978 10 0 59543 73800.00000 0 -24412450.106 3835979.259 6498093.256 10 0 59543 74700.00000 0 -25002286.632 4101690.543 3330657.902 10 0 59543 75600.00000 0 -25181772.624 4356255.271 98865.758 10 0 59543 76500.00000 0 -24953538.559 4542091.235 -3134836.992 10 0 59543 77400.00000 0 -24333722.495 4603876.658 -6307982.393 10 0 59543 78300.00000 0 -23351260.697 4491109.757 -9359269.560 10 0 59543 79200.00000 0 -22046667.262 4160470.325 -12229731.321 10 0 59543 80100.00000 0 -20470353.057 3577884.897 -14863857.578 10 0 59543 81000.00000 0 -18680552.926 2720209.100 -17210655.126 10 0 59543 81900.00000 0 -16740946.005 1576456.210 -19224624.766 10 0 59543 82800.00000 0 -14718066.527 148519.327 -20866637.767 10 0 59543 83700.00000 0 -12678611.135 -1548644.975 -22104695.417 10 0 59543 84600.00000 0 -10686753.121 -3487381.883 -22914557.207 10 0 59543 85500.00000 0 -8801574.208 -5628240.328 -23280225.176 10 0 59544 0.00000 0 -7074720.100 -7921377.411 -23194274.268 10 0 59544 900.00000 0 -5548376.433 -10308411.518 -22658020.856 10 0 59544 1800.00000 0 -4253652.196 -12724646.993 -21681524.577 10 0 59544 2700.00000 0 -3209435.998 -15101584.486 -20283421.181 10 0 59544 3600.00000 0 -2421776.680 -17369611.184 -18490587.351 10 0 59544 4500.00000 0 -1883814.865 -19460760.802 -16337641.738 10 0 59544 5400.00000 0 -1576270.004 -21311427.862 -13866289.851 10 0 59544 6300.00000 0 -1468463.659 -22864921.802 -11124523.862 10 0 59544 7200.00000 0 -1519836.716 -24073752.182 -8165691.893 10 0 59544 8100.00000 0 -1681896.485 -24901546.951 -5047454.592 10 0 59544 9000.00000 0 -1900510.633 -25324520.836 -1830649.699 10 0 59544 9900.00000 0 -2118449.313 -25332429.834 1421911.953 10 0 59544 10800.00000 0 -2278065.498 -24928969.917 4646693.776 10 0 59544 11700.00000 0 -2323997.139 -24131602.129 7780697.483 10 0 59544 12600.00000 0 -2205773.574 -22970811.277 10762716.633 10 0 59544 13500.00000 0 -1880212.752 -21488830.243 13534552.742 10 0 59544 14400.00000 0 -1313505.085 -19737885.119 16042168.045 10 0 59544 15300.00000 0 -482893.709 -17778037.194 18236750.636 10 0 59544 16200.00000 0 622121.168 -15674714.904 20075670.113 10 0 59544 17100.00000 0 1999105.232 -13496041.716 21523304.814 10 0 59544 18000.00000 0 3632568.626 -11310074.048 22551724.749 10 0 59544 18900.00000 0 5494404.393 -9182066.205 23141218.038 10 0 59544 19800.00000 0 7544867.273 -7171877.188 23280652.131 10 0 59544 20700.00000 0 9734050.350 -5331627.313 22967664.691 10 0 59544 21600.00000 0 12003796.551 -3703700.989 22208682.551 10 0 59544 22500.00000 0 14289964.119 -2319176.687 21018770.476 10 0 59544 23400.00000 0 16524950.920 -1196746.714 19421314.624 10 0 59544 24300.00000 0 18640372.370 -342168.466 17447548.525 10 0 59544 25200.00000 0 20569781.974 251733.393 15135932.006 10 0 59544 26100.00000 0 22251322.265 604517.228 12531396.022 10 0 59544 27000.00000 0 23630197.300 747053.090 9684468.421 10 0 59544 27900.00000 0 24660865.648 719976.917 6650297.500 10 0 59544 28800.00000 0 25308864.460 571736.578 3487591.942 10 0 59544 29700.00000 0 25552190.577 356312.564 257496.851 10 0 59544 30600.00000 0 25382182.818 130709.130 -2977573.450 10 0 59544 31500.00000 0 24803869.904 -47679.262 -6155124.447 10 0 59544 32400.00000 0 23835770.293 -123716.358 -9213770.793 10 0 59544 33300.00000 0 22509152.353 -47077.167 -12094404.519 10 0 59544 34200.00000 0 20866785.210 225400.655 -14741320.974 10 0 59544 35100.00000 0 18961231.213 727665.228 -17103282.230 10 0 59544 36000.00000 0 16852749.493 1482784.689 -19134498.689 10 0 59544 36900.00000 0 14606895.996 2501737.694 -20795510.893 10 0 59544 37800.00000 0 12291917.772 3782712.227 -22053955.185 10 0 59544 38700.00000 0 9976047.854 5310944.247 -22885198.677 10 0 59544 39600.00000 0 7724811.557 7059105.644 -23272830.905 10 0 59544 40500.00000 0 5598454.920 8988228.619 -23209001.939 10 0 59544 41400.00000 0 3649601.519 11049131.361 -22694599.043 10 0 59544 42300.00000 0 1921235.222 13184288.865 -21739256.720 10 0 59544 43200.00000 0 445093.404 15330073.838 -20361197.849 10 0 59544 44100.00000 0 -759461.288 17419276.465 -18586906.664 10 0 59544 45000.00000 0 -1686042.044 19383799.159 -16450637.663 10 0 59544 45900.00000 0 -2341285.278 21157414.092 -13993767.897 10 0 59544 46800.00000 0 -2744340.984 22678467.503 -11264003.533 10 0 59544 47700.00000 0 -2925826.559 23892415.933 -8314455.100 10 0 59544 48600.00000 0 -2926287.879 24754085.818 -5202599.050 10 0 59544 49500.00000 0 -2794233.070 25229558.969 -1989146.238 10 0 59544 50400.00000 0 -2583823.312 25297602.013 1263159.385 10 0 59544 51300.00000 0 -2352320.458 24950577.382 4490786.665 10 0 59544 52200.00000 0 -2157402.206 24194795.773 7630681.187 10 0 59544 53100.00000 0 -2054461.548 23050294.365 10621519.997 10 0 59544 54000.00000 0 -2094008.002 21550050.197 13404930.194 10 0 59544 54900.00000 0 -2319283.546 19738662.669 15926645.366 10 0 59544 55800.00000 0 -2764196.481 17670562.267 18137575.510 10 0 59544 56700.00000 0 -3451662.257 15407822.852 19994768.465 10 0 59544 57600.00000 0 -4392422.186 13017671.532 21462243.735 10 0 59544 58500.00000 0 -5584389.905 10569802.604 22511682.714 10 0 59544 59400.00000 0 -7012552.450 8133609.515 23122962.911 10 0 59544 60300.00000 0 -8649428.986 5775451.366 23284527.310 10 0 59544 61200.00000 0 -10456066.415 3556068.057 22993583.551 10 0 59544 62100.00000 0 -12383528.656 1528250.871 22256131.226 10 0 59544 63000.00000 0 -14374815.936 -265136.354 21086818.824 10 0 59544 63900.00000 0 -16367132.847 -1792705.615 19508635.116 10 0 59544 64800.00000 0 -18294409.995 -3035601.415 17552442.620 10 0 59544 65700.00000 0 -20089974.103 -3988025.194 15256363.495 10 0 59544 66600.00000 0 -21689255.771 -4657209.081 12665030.670 10 0 59544 67500.00000 0 -23032423.141 -5062843.369 9828719.127 10 0 59544 68400.00000 0 -24066833.144 -5235984.384 6802374.133 10 0 59544 69300.00000 0 -24749199.780 -5217490.535 3644554.891 10 0 59544 70200.00000 0 -25047390.771 -5056053.459 416313.304 10 0 59544 71100.00000 0 -24941779.211 -4805907.400 -2819971.572 10 0 59544 72000.00000 0 -24426095.082 -4524312.884 -6001781.959 10 0 59544 72900.00000 0 -23507741.879 -4268919.734 -9067651.183 10 0 59544 73800.00000 0 -22207565.304 -4095119.241 -11958333.429 10 0 59544 74700.00000 0 -20559083.232 -4053495.653 -14617932.211 10 0 59544 75600.00000 0 -18607207.937 -4187483.094 -16994967.302 10 0 59544 76500.00000 0 -16406512.120 -4531325.774 -19043360.764 10 0 59544 77400.00000 0 -14019108.891 -5108427.079 -20723324.021 10 0 59544 78300.00000 0 -11512231.551 -5930157.551 -22002129.567 10 0 59544 79200.00000 0 -8955611.416 -6995173.203 -22854752.641 10 0 59544 80100.00000 0 -6418760.531 -8289274.969 -23264370.204 10 0 59544 81000.00000 0 -3968270.409 -9785818.011 -23222706.815 10 0 59544 81900.00000 0 -1665237.749 -11446657.036 -22730219.426 10 0 59544 82800.00000 0 437076.291 -13223591.411 -21796115.743 10 0 59544 83700.00000 0 2295255.842 -15060252.806 -20438203.728 10 0 59544 84600.00000 0 3877324.659 -16894359.106 -18682572.814 10 0 59544 85500.00000 0 5163857.286 -18660242.081 -16563110.757 99